Simultaneous Nadir Overpasses (SNOs) Predictions

Prediction of SNOs over PacNW region [( 10.00, 139.50) to ( 22.70, 165.60)] between NOAA-19 and NPP Satellites:

Table of predicted SNOs over PacNW region for the next 30.0 days since TLE Epoch: 6/30/2012
Index Date (NOAA-19) Time (NOAA-19) NOAA-19 Lat,Lon Date (NPP) Time (NPP) NPP Lat,Lon Distance(km) Time Diff (sec)
1 07/03/2012 14:56:36 22.59, 162.72 07/03/2012 14:56:35 23.07, 160.42 242.30 1
2 07/04/2012 03:55:13 22.69, 140.65 07/04/2012 03:51:36 25.14, 138.83 329.61 217
3 07/15/2012 16:11:21 22.60, 144.05 07/15/2012 16:13:51 23.25, 141.11 310.27 150
4 07/16/2012 03:27:50 22.65, 147.52 07/16/2012 03:26:38 22.24, 145.58 204.48 72
5 07/28/2012 02:57:22 11.66, 157.03 07/28/2012 03:00:31 10.96, 153.97 343.20 189
6 07/28/2012 15:34:20 18.81, 152.65 07/28/2012 15:33:14 19.28, 150.53 228.75 66
7 07/29/2012<
